Santa Rosa, CA

3:39 PM PST on December 15, 2019 (GMT -0800)
Sonoma County

Weather History for KSTS - November, 2019

Change the Weather History Date:

Monday, November 18, 2019

  Actual Average Record
Temperature  
Mean Temperature 61 °F 52 °F  
Max Temperature 81 °F 63 °F 81 °F (2019)
Min Temperature 41 °F 40 °F 27 °F (2018)
Degree Days  
Heating Degree Days 4    
Month to date heating degree days 127  
Since 1 July heating degree days 329  
Cooling Degree Days 0    
Month to date cooling degree days 0  
Year to date cooling degree days 569  
Growing Degree Days 10 (Base 50)    
Moisture  
Dew Point 46 °F    
Average Humidity 66    
Maximum Humidity 100    
Minimum Humidity 32    
Precipitation  
Precipitation 0.00 in 0.16 in 0.03 in (2011)
Month to date precipitation T 2.63  
Year to date precipitation 38.54 27.19  
Sea Level Pressure  
Sea Level Pressure 29.90 in    
Wind  
Wind Speed 3 mph (SSW)    
Max Wind Speed 10 mph    
Max Gust Speed 13 mph    
Visibility 10 miles    
Events      
T = Trace of Precipitation, MM = Missing Value Source: NWS Daily Summary

Daily Weather History Graph

Daily Weather History Graph

Search for Another Location

Airport or City:

Astronomy

Nov. 18, 2019 Rise Set
Actual Time 6:56 AM PST 4:56 PM PST
Civil Twilight 6:27 AM PST 5:24 PM PST
Nautical Twilight 5:55 AM PST 5:56 PM PST
Astronomical Twilight 5:23 AM PST 6:28 PM PST
Moon 10:47 PM PST (11/18) 12:30 PM PST (11/18)
Length of Visible Light 10h 57m
Length of Day
10h 00m
Waning Gibbous, 62% of the Moon is Illuminated
Nov 18
Waning Gibbous
Nov 19
Last Quarter
Nov 26
New
Dec 3
First Quarter
Dec 11
Full

Hourly Weather History & Observations

Time (PST) Temp. Windchill Dew Point Humidity Pressure Visibility Wind Dir Wind Speed Gust Speed Precip Events Conditions
12:53 AM 45.0 °F - 42.1 °F 90% 30.01 in 10.0 mi Calm Calm - N/A   Clear
1:53 AM 44.1 °F 42.5 °F 43.0 °F 96% 30.01 in 10.0 mi NW 3.5 mph - N/A   Clear
2:53 AM 44.1 °F 42.5 °F 44.1 °F 100% 30.00 in 10.0 mi NNW 3.5 mph - N/A   Clear
3:53 AM 45.0 °F 42.6 °F 44.1 °F 97% 29.99 in 10.0 mi WNW 4.6 mph - N/A   Clear
4:53 AM 45.0 °F 42.6 °F 44.1 °F 97% 29.98 in 10.0 mi NW 4.6 mph - N/A   Clear
5:53 AM 44.1 °F - 42.1 °F 93% 29.97 in 10.0 mi Calm Calm - N/A   Clear
6:53 AM 41.0 °F 39.0 °F 39.9 °F 96% 29.98 in 10.0 mi South 3.5 mph - N/A   Clear
7:53 AM 46.0 °F - 44.1 °F 93% 29.99 in 10.0 mi Calm Calm - N/A   Clear
9:53 AM 61.0 °F - 46.0 °F 58% 29.98 in 10.0 mi Calm Calm - N/A   Partly Cloudy
10:53 AM 69.1 °F - 46.9 °F 45% 29.96 in 10.0 mi Calm Calm - N/A   Partly Cloudy
11:53 AM 73.0 °F - 48.0 °F 41% 29.92 in 10.0 mi Calm Calm - N/A   Partly Cloudy
12:53 PM 77.0 °F - 48.0 °F 36% 29.89 in 10.0 mi Variable 3.5 mph - N/A   Partly Cloudy
1:53 PM 79.0 °F - 46.9 °F 32% 29.85 in 10.0 mi South 4.6 mph - N/A   Partly Cloudy
2:53 PM 80.1 °F - 48.0 °F 32% 29.83 in 10.0 mi SSE 5.8 mph - N/A   Partly Cloudy
3:53 PM 77.0 °F - 48.0 °F 36% 29.82 in 10.0 mi SSW 6.9 mph - N/A   Partly Cloudy
4:53 PM 70.0 °F - 46.9 °F 44% 29.83 in 10.0 mi South 6.9 mph - N/A   Partly Cloudy
5:53 PM 64.0 °F - 45.0 °F 50% 29.83 in 10.0 mi South 6.9 mph - N/A   Scattered Clouds
6:53 PM 57.9 °F - 48.9 °F 72% 29.83 in 10.0 mi SSE 5.8 mph - N/A   Clear
7:53 PM 55.0 °F - 50.0 °F 83% 29.84 in 10.0 mi South 3.5 mph - N/A   Clear
8:53 PM 53.1 °F - 50.0 °F 89% 29.83 in 10.0 mi Calm Calm - N/A   Clear
9:53 PM 51.1 °F - 48.9 °F 92% 29.83 in 10.0 mi Calm Calm - N/A   Clear
10:53 PM 51.1 °F - 48.9 °F 92% 29.83 in 10.0 mi Calm Calm - N/A   Clear
11:53 PM 48.9 °F - 46.9 °F 93% 29.81 in 10.0 mi Calm Calm - N/A   Clear